Theta_e
293 296 301 303 303 299 297 296 296 298 296 301 309 312 317 321 327 328 328 328 328 328 328 329 330 330 330 331 332 334 335 335 334 332 333 332 331 331 327 325 324 325 326 326
295 303 304 303 305 304 304 301 299 300 299 305 309 315 316 318 326 326 327 328 330 329 329 328 327 327 329 330 331 333 335 334 334 333 333 330 329 327 322 320 320 324 324 324
291 299 300 294 302 304 305 306 305 301 305 311 310 313 315 316 324 323 325 327 326 325 323 321 322 324 326 327 329 331 333 337 334 334 332 329 325 322 318 315 316 317 319 322
291 293 287 296 305 308 309 314 313 310 311 313 313 314 317 319 321 321 324 323 323 320 317 316 317 318 320 323 323 326 328 332 334 333 330 327 322 316 313 311 311 312 314 317
292 290 296 302 308 311 305 305 313 312 313 317 318 317 317 322 322 323 321 320 318 317 316 313 312 315 317 317 319 321 320 324 333 331 326 322 316 312 309 309 308 309 312 312
295 291 290 299 313 321 317 300 314 315 315 318 317 307 311 319 318 317 317 316 314 313 314 310 311 314 314 313 313 313 315 316 328 329 324 317 313 309 308 308 307 308 309 309
295 294 298 308 318 319 299 301 317 319 319 318 313 315 317 317 315 315 314 313 312 310 310 310 311 312 310 310 309 311 311 312 313 316 315 313 309 309 308 307 306 306 306 306
293 292 292 316 316 305 308 316 318 320 317 316 316 316 314 314 313 313 312 312 311 309 309 309 310 310 308 307 309 309 309 309 309 309 310 309 307 308 308 308 306 305 304 304
295 296 309 319 319 321 321 318 318 319 319 318 314 314 314 313 312 312 311 311 310 309 308 308 309 309 307 308 309 308 307 306 306 307 307 308 307 306 306 306 305 304 303 303
301 306 312 318 319 318 322 321 322 321 320 319 315 314 312 312 311 310 310 309 309 308 307 307 308 308 307 307 306 305 303 304 305 305 304 305 305 306 305 304 304 303 303 303
302 308 311 314 316 317 321 321 320 319 319 318 316 313 313 312 311 311 311 310 309 308 307 307 306 305 306 306 306 304 303 302 302 301 300 298 297 300 301 301 303 302 302 303
301 307 308 309 317 320 319 319 318 316 314 316 315 313 312 311 311 311 310 309 309 308 308 307 305 302 302 303 304 302 300 299 300 299 297 296 295 294 296 296 295 293 294 298
307 312 312 315 319 321 318 319 319 316 315 312 313 314 313 311 310 311 309 307 308 308 308 306 305 301 300 300 300 299 295 295 295 294 293 292 292 293 292 293 293 292 291 292
313 312 313 318 314 320 319 319 316 315 314 314 312 312 312 311 311 310 309 308 311 310 308 309 303 300 299 298 297 295 295 293 291 291 291 291 291 291 292 293 293 293 292 292
315 316 313 314 317 317 317 316 313 312 312 311 312 311 311 311 311 312 313 313 312 310 309 306 301 298 298 298 296 294 293 292 291 291 291 291 291 291 291 292 292 292 292 292
312 314 313 312 313 315 315 313 311 311 311 311 310 311 311 312 312 312 312 311 308 306 305 302 300 299 299 299 297 295 295 295 293 293 293 293 293 291 291 292 292 293 293 294
304 304 308 309 311 312 313 313 313 312 311 311 310 311 312 312 311 313 313 312 308 306 305 302 300 302 303 302 300 298 297 298 296 295 295 294 294 294 293 292 293 293 294 293
303 305 307 309 310 312 312 314 313 312 312 312 312 312 311 311 311 312 312 309 309 308 307 307 307 307 307 306 303 301 300 299 299 297 296 296 296 296 296 294 294 294 294 294
308 307 305 309 310 312 313 313 313 314 312 313 312 311 312 311 311 310 309 309 308 308 309 310 311 311 308 306 304 303 303 302 302 302 300 299 298 298 298 298 297 296 296 296
308 309 306 307 311 311 312 314 314 314 314 313 311 311 310 310 311 309 308 308 309 311 312 310 313 311 310 309 312 305 306 306 304 303 302 301 301 301 300 297 300 298 297 297
307 309 306 308 310 313 314 314 314 313 313 313 312 310 310 308 310 308 309 310 310 313 313 313 312 311 309 307 311 310 308 308 305 305 304 303 302 302 301 301 300 299 298 296
308 307 308 311 311 311 312 313 314 313 313 312 312 311 310 310 310 309 311 311 309 306 309 310 309 308 305 305 303 303 303 304 304 305 304 303 303 302 302 302 300 300 299 297
308 306 309 309 308 308 309 309 310 311 311 311 311 311 311 311 311 308 306 307 307 305 306 305 306 306 305 304 303 302 301 303 302 304 304 304 304 304 304 303 303 302 300 298
310 307 307 308 309 309 307 309 310 311 312 312 313 313 311 308 306 306 305 303 302 303 303 302 302 303 303 304 302 301 301 302 301 301 300 296 301 301 301 302 303 304 302 299
309 308 308 309 309 308 309 309 309 310 310 310 310 310 310 311 309 307 307 303 302 304 304 303 303 302 302 302 301 301 300 299 300 299 299 299 299 299 300 300 299 300 301 300
308 308 309 310 310 310 310 310 308 309 309 307 308 309 309 309 308 308 306 305 306 305 307 308 308 308 306 303 302 301 300 300 300 299 298 299 299 299 298 298 298 299 299 299
307 305 308 308 310 310 310 309 308 308 309 308 307 308 308 308 307 307 306 308 308 308 308 309 309 307 307 307 304 303 301 300 297 299 299 299 299 299 299 299 299 299 299 299
Wind_Speed
5 4 4 3 5 7 4 6 5 5 8 8 12 13 7 7 7 10 9 6 6 6 6 5 4 4 5 3 2 5 6 6 5 4 4 6 6 7 6 7 7 7 8 9
3 2 8 5 6 7 5 4 3 3 9 4 4 8 6 8 9 11 11 7 6 7 9 7 5 4 5 3 1 3 5 6 6 6 6 7 7 7 7 7 7 7 8 9
3 3 1 2 6 6 4 5 7 6 6 2 2 6 6 7 9 12 10 9 10 8 7 6 4 3 4 2 2 1 3 5 6 8 9 8 8 7 7 7 6 6 6 6
3 3 3 8 3 4 4 1 2 3 4 4 5 6 7 5 5 7 10 9 8 7 5 4 1 2 4 2 2 2 3 3 6 8 10 10 9 8 7 6 6 5 6 6
5 4 5 1 3 2 2 3 2 2 3 6 8 5 6 5 6 9 11 9 7 6 4 4 5 4 5 5 5 5 6 5 5 9 11 10 10 9 6 7 6 5 6 7
3 4 7 7 1 4 2 4 3 3 5 11 8 6 3 7 11 12 12 9 8 6 5 5 5 5 7 6 6 6 6 6 1 8 8 9 10 9 6 6 7 5 9 7
3 3 6 3 8 5 5 8 1 5 5 1 4 2 10 11 10 10 10 10 8 7 6 6 6 6 6 5 7 5 6 6 9 8 9 8 7 8 6 7 8 8 9 8
2 3 6 4 5 4 3 2 5 5 5 10 9 11 10 11 11 11 11 9 7 6 7 7 6 6 6 7 5 5 5 7 9 9 7 7 10 8 6 7 8 7 8 7
7 6 3 4 5 7 4 2 1 7 9 14 13 8 11 10 10 9 9 7 6 6 7 6 5 4 5 3 4 5 6 7 9 9 9 8 9 8 6 6 5 6 4 6
2 3 3 6 7 4 5 2 1 5 14 14 13 10 10 9 9 8 7 7 7 7 6 5 5 5 4 5 5 6 7 8 7 8 9 8 5 5 6 4 3 5 6 5
4 5 3 5 4 5 5 7 9 7 6 13 14 11 12 9 8 7 7 6 6 6 6 5 5 4 4 4 6 8 8 8 8 7 8 8 7 5 5 3 2 3 4 5
6 5 4 4 4 4 5 3 5 10 7 7 11 10 11 9 7 7 7 6 6 6 6 6 5 4 4 3 4 5 8 7 7 6 5 6 6 7 15 10 11 10 8 7
3 3 4 3 3 1 0 3 4 7 8 10 7 12 10 9 5 8 8 8 8 8 6 6 5 5 4 5 5 5 7 7 5 6 5 5 5 6 7 8 14 11 11 10
3 2 3 2 2 2 3 4 7 6 6 7 10 8 10 10 8 8 9 9 7 7 7 6 7 6 4 5 7 7 7 10 5 5 5 5 5 6 5 6 6 4 8 6
5 3 3 4 3 6 4 5 7 6 6 5 5 8 8 11 8 7 6 7 7 6 6 6 6 5 4 5 6 7 6 5 5 5 4 5 4 4 4 5 5 5 3 3
4 2 4 2 2 4 5 6 8 7 7 6 7 6 7 6 5 6 7 7 8 6 5 6 6 5 6 6 6 5 5 9 6 4 4 4 4 4 4 4 3 3 3 2
3 2 3 5 5 5 7 6 6 7 7 8 7 7 7 7 7 7 7 7 6 7 6 6 6 6 6 6 6 4 4 4 6 3 3 3 3 3 3 3 3 3 3 3
7 7 5 6 6 7 6 7 7 8 7 8 8 8 9 9 9 7 7 6 5 5 6 6 5 5 4 5 5 4 4 4 4 4 3 3 4 4 4 4 5 4 4 3
6 10 9 8 8 7 6 9 9 9 8 9 10 9 8 7 8 6 7 6 5 5 4 5 9 9 6 7 7 5 5 5 5 5 5 6 6 7 6 6 7 6 5 5
9 6 7 8 6 6 6 6 10 9 8 9 8 8 7 6 7 7 6 6 4 3 6 6 7 5 5 6 10 5 5 5 6 6 6 7 7 7 7 9 8 7 6 7
10 8 7 5 5 4 4 5 9 10 10 10 10 9 9 7 7 8 8 5 3 2 3 5 4 3 3 2 4 6 6 6 5 6 7 7 6 7 7 7 7 6 7 6
9 7 3 8 8 6 6 6 8 8 10 9 7 9 10 8 8 6 4 6 2 8 4 3 4 5 4 6 3 2 1 3 4 3 4 5 5 6 6 5 7 7 7 7
8 4 6 7 8 8 8 7 7 8 7 7 8 9 7 6 7 9 6 1 4 8 5 6 5 5 6 3 1 1 2 2 3 3 3 4 5 5 5 7 7 7 8 8
5 7 10 9 10 11 13 7 9 9 9 9 8 8 10 7 6 5 8 9 9 10 7 4 2 3 2 1 1 2 3 4 3 2 1 1 2 3 4 5 6 7 8 8
10 11 11 10 10 9 12 8 10 12 10 11 10 9 9 5 6 5 7 7 11 6 3 2 4 6 2 3 3 3 3 3 2 1 1 2 3 4 4 4 4 5 6 6
9 8 7 8 9 9 7 7 8 6 7 8 7 8 8 7 7 7 6 7 4 4 3 2 2 3 3 3 3 3 3 3 2 2 2 3 4 5 5 5 5 5 4 5
9 9 9 10 8 8 7 8 8 8 8 9 9 7 7 6 6 5 5 4 3 2 2 3 3 5 5 5 5 4 3 3 3 3 3 4 4 5 6 6 6 6 6 5
Wind_Direction
248 224 192 221 188 170 145 157 146 233 202 242 226 211 165 150 134 131 149 179 137 150 141 136 156 139 135 195 221 223 209 210 204 190 159 131 111 99 82 71 66 61 58 48
341 305 182 194 228 196 174 137 293 231 258 223 265 111 135 143 157 154 167 160 122 106 120 115 111 110 98 93 182 241 229 214 166 154 151 127 117 110 92 79 68 65 60 63
258 339 88 4 200 210 194 164 152 189 240 152 116 132 158 142 164 162 153 132 127 117 124 122 121 133 108 119 5 118 209 218 166 158 144 132 125 110 92 78 73 66 63 67
185 21 190 239 304 245 230 161 223 213 215 179 137 100 81 117 159 134 112 118 110 112 117 113 114 79 113 113 77 43 47 246 169 160 146 129 117 108 104 94 87 84 72 57
148 182 276 279 45 70 91 293 16 21 135 127 126 91 73 49 66 103 108 96 91 86 88 67 43 21 57 52 51 43 12 355 181 158 149 135 128 121 113 109 92 79 76 73
137 160 196 237 316 29 179 295 354 127 163 157 140 144 151 114 115 107 102 107 107 106 91 76 43 55 60 41 41 29 6 351 267 140 143 133 127 124 120 111 106 91 89 73
159 211 283 308 308 299 110 234 161 125 126 297 90 151 126 111 98 100 102 103 98 88 81 66 58 58 63 48 39 16 20 27 43 72 97 107 97 101 107 106 100 89 83 69
83 111 265 20 300 192 235 81 140 104 109 102 120 121 120 119 123 116 108 103 97 89 71 52 47 61 59 52 27 43 53 60 65 63 70 86 93 88 85 93 95 90 97 77
178 215 284 289 272 307 295 302 176 117 133 142 144 141 130 127 118 107 109 108 93 91 88 67 57 73 85 55 50 70 78 72 75 78 79 78 90 82 82 78 94 97 80 93
42 240 296 307 309 320 329 15 81 142 144 147 137 127 107 111 114 116 127 124 125 113 95 87 69 59 75 90 87 80 78 75 78 87 83 70 68 90 97 84 79 120 116 102
272 273 290 282 298 335 16 73 86 77 125 140 133 130 131 129 127 122 123 122 119 116 114 102 100 90 83 96 110 105 95 86 78 73 75 77 62 52 72 41 99 112 102 117
229 223 149 241 290 352 14 57 100 117 110 100 136 132 127 131 131 136 131 113 118 120 119 118 99 97 98 94 93 99 93 86 87 90 89 94 97 83 51 62 67 74 80 105
280 249 214 228 148 336 49 132 116 110 128 129 125 139 139 137 142 135 125 133 155 143 133 135 133 118 97 78 80 75 99 92 97 106 107 108 102 105 106 59 62 51 65 74
115 335 347 345 145 96 75 83 90 86 97 120 128 128 143 147 141 143 155 154 142 135 122 112 108 106 112 110 108 100 90 96 95 96 97 101 106 114 124 121 114 79 34 62
291 167 178 275 323 90 134 125 120 117 117 110 130 133 144 150 151 141 131 127 122 123 119 120 125 134 123 115 110 111 112 111 109 103 96 96 102 103 99 104 115 120 116 75
217 327 343 296 136 141 120 131 137 151 145 145 142 149 158 143 125 128 137 128 138 163 162 138 136 145 138 122 113 106 105 123 118 113 114 116 119 112 114 119 137 140 145 161
101 224 244 279 234 191 193 173 169 161 145 147 157 141 132 131 128 147 147 147 141 145 150 145 154 154 142 138 133 134 140 145 148 135 152 154 143 145 152 164 178 180 191 201
265 261 235 239 217 187 184 182 158 161 168 158 139 138 138 147 157 161 144 137 127 127 157 161 157 168 185 172 162 162 167 177 186 195 188 207 208 194 192 195 197 202 202 218
278 265 249 233 229 208 179 177 176 163 142 146 148 158 158 154 150 134 129 136 148 155 197 173 181 170 181 194 177 173 186 202 216 221 210 201 214 221 213 213 217 212 211 214
298 293 241 227 193 202 203 166 158 157 159 151 135 133 135 141 138 136 137 146 184 204 160 173 176 179 194 207 202 202 219 223 229 231 216 208 209 219 217 214 222 214 207 218
301 305 259 186 160 171 167 149 144 150 149 153 156 153 148 142 141 139 133 125 10 49 148 178 166 171 191 193 210 201 216 235 242 243 228 217 210 212 211 211 212 215 214 209
303 309 181 138 132 114 118 133 132 139 153 146 134 134 137 136 125 93 90 129 158 91 80 90 110 122 110 86 79 91 315 278 279 270 238 215 201 211 220 215 228 226 222 214
301 221 125 112 112 101 82 79 93 109 116 127 136 133 134 135 140 130 117 344 116 99 95 66 50 108 123 108 106 345 292 322 295 287 252 210 203 208 222 232 235 231 227 222
68 86 98 106 101 97 91 90 98 92 92 89 97 116 125 116 70 63 94 106 92 75 88 106 60 358 288 182 180 19 315 293 301 270 271 256 236 220 227 241 247 245 240 231
80 85 85 89 90 99 85 99 99 88 93 90 89 85 82 68 110 109 91 86 83 86 76 61 345 328 330 8 5 348 342 322 324 231 228 273 293 287 277 262 254 252 247 241
78 83 85 97 92 89 98 89 95 101 99 93 84 87 87 91 94 89 91 97 91 92 69 348 326 313 318 343 304 287 292 311 313 273 272 282 286 280 276 281 289 280 256 245
75 71 79 74 68 79 88 89 93 90 89 93 91 79 88 84 78 75 73 70 59 25 325 294 278 283 293 295 287 261 254 249 253 279 285 282 277 270 274 273 276 279 282 283